This demonstration page uses our WeatherBlox Daily Observations layout. Learn more.

Left ArrowRight Arrow

38.20091, -84.87328

Hourly Observations for July 30, 2020

Temp ( °F °C ) Dew Point ( °F °C ) Humidity (%) Winds ( mph kmh ) Pressure ( in mb ) Visibility ( mi km ) Precip ( " mm )
12:53 am 00:53 Clear 78 25.6 72 22.2 82 82 Calm 29.93 1013 10 16 0.00 0.00
1:53 am 01:53 Clear 77 25 72 22.2 85 85 Calm 29.91 1013 10 16 0.00 0.00
2:53 am 02:53 Cloudy 76 24.4 72 22.2 88 88 Calm 29.90 1012 10 16 0.00 0.00
3:53 am 03:53 Mostly Cloudy 74 23.3 71 21.7 91 91 Calm 29.89 1012 10 16 0.00 0.00
4:53 am 04:53 Mostly Clear 76 24.4 72 22.2 88 88 Calm 29.89 1012 10 16 0.00 0.00
5:53 am 05:53 Mostly Clear 75 23.9 71 21.7 88 88 Calm 29.88 1012 10 16 0.00 0.00
6:53 am 06:53 Mostly Sunny 75 23.9 71 21.7 88 88 Calm 29.88 1012 10 16 0.00 0.00
7:53 am 07:53 Sunny 77 25 73 22.8 88 88 Calm 29.88 1012 10 16 0.00 0.00
8:53 am 08:53 Sunny 80 26.7 74 23.3 82 82 SSW 6 9 29.88 1012 10 16 0.00 0.00
9:53 am 09:53 Mostly Cloudy with Light Rain 80 26.7 72 22.2 76 76 SW 6 9 29.89 1012 10 16 0.00 0.00
10:53 am 10:53 Mostly Cloudy with Rain 78 25.6 74 23.3 87 87 SSW 6 9 29.88 1012 5 8 0.02 0.51
11:09 am 11:09 Cloudy with Nearby Thunderstorms 77 25 73 22.8 88 88 S 7 11 29.88 1012 3 5 0.04 1.02
11:24 am 11:24 Cloudy with Rain 76 24.4 71 21.7 85 85 S 3 6 29.88 1012 5 8 0.06 1.52
11:53 am 11:53 Cloudy with Light Rain 77 25 73 22.8 88 88 Calm 29.88 1012 8 13 0.07 1.78
12:29 pm 12:29 Mostly Cloudy 79 26.1 73 22.8 82 82 Calm 29.86 1011 10 16 0.00 0.00
12:53 pm 12:53 Mostly Cloudy 80 26.7 75 23.9 85 85 SSW 3 6 29.85 1011 10 16 0.00 0.00
1:22 pm 13:22 Cloudy with Rain 78 25.6 75 23.9 90 90 NE 5 7 29.84 1010 2 3 0.04 1.02
1:29 pm 13:29 Cloudy with Rain 78 25.6 74 23.3 87 87 ENE 3 6 29.84 1010 3 5 0.06 1.52
1:36 pm 13:36 Cloudy with Light Rain 78 25.6 75 23.9 90 90 Calm 29.84 1010 4 6 0.07 1.78
1:53 pm 13:53 Cloudy with Light Rain 78 25.6 75 23.9 90 90 VRB 3 6 29.84 1010 3 4 0.10 2.54
2:03 pm 14:03 Cloudy with Light Rain 79 26.1 75 23.9 88 88 SW 12 19 29.82 1010 3 5 0.01 0.25
2:26 pm 14:26 Cloudy 79 26.1 73 22.8 82 82 S 7 11 29.81 1010 10 16 0.02 0.51
2:53 pm 14:53 Cloudy 79 26.1 73 22.8 82 82 SSW 6 9 29.82 1010 10 16 0.02 0.51
3:53 pm 15:53 Cloudy with Light Rain 78 25.6 75 23.9 90 90 SSE 7 11 29.79 1009 6 10 0.08 2.03
4:27 pm 16:27 Mostly Cloudy 81 27.2 76 24.4 85 85 SSE 9 15 29.75 1008 10 16 0.00 0.00
4:53 pm 16:53 Cloudy 81 27.2 75 23.9 82 82 SW 10 17 29.77 1008 10 16 0.00 0.00
5:31 pm 17:31 Mostly Cloudy 83 28.3 75 23.9 77 77 SW 10 17 29.74 1007 10 16 0.00 0.00
5:48 pm 17:48 Mostly Cloudy 82 28 73 23 74 74 SSW 14 22 29.74 1007 10 16 0.00 0.00
5:53 pm 17:53 Mostly Cloudy 82 27.8 74 23.3 77 77 SSW 9 15 29.75 1008 10 16 0.00 0.00
6:06 pm 18:06 Cloudy 83 28.3 74 23.3 74 74 SW 10 17 29.74 1007 10 16 0.00 0.00
6:50 pm 18:50 Cloudy with Light Rain 79 26 73 23 84 84 SSW 8 13 29.72 1007 3 4 0.06 1.52
6:53 pm 18:53 Cloudy with Light Rain 80 26.7 74 23.3 82 82 SSW 10 17 29.74 1007 4 6 0.06 1.52
7:23 pm 19:23 Cloudy with Nearby Thunderstorms 79 26.1 74 23.3 85 85 S 9 15 29.72 1007 10 16 0.00 0.00
7:47 pm 19:47 Cloudy with Thunderstorms 79 26 73 23 84 84 NW 10 17 29.73 1007 10 16 0.00 0.00
7:51 pm 19:51 Cloudy with Thunderstorms 77 25 73 23 89 89 NW 14 22 29.75 1007 3 4 0.06 1.52
7:53 pm 19:53 Cloudy with Strong Thunderstorms 75 23.9 72 22.2 90 90 WNW 16 26 29.76 1008 1 2 0.12 3.05
7:55 pm 19:55 Mostly Cloudy with Strong Thunderstorms 74 23.3 71 21.7 91 91 WNW 13 20 29.76 1008 1 1 0.05 1.27
7:59 pm 19:59 Mostly Cloudy with Heavy Rain 73 22.8 71 21.7 94 94 NW 9 15 29.76 1008 1 1 0.22 5.59
8:07 pm 20:07 Cloudy with Heavy Rain 73 22.8 71 21.7 94 94 N 7 11 29.77 1008 1 1 0.37 9.40
8:14 pm 20:14 Cloudy with Nearby Thunderstorms 72 22.2 70 21.1 94 94 N 9 15 29.78 1008 1 1 0.48 12.19
8:21 pm 20:21 Cloudy with Nearby Thunderstorms 72 22.2 70 21.1 94 94 NE 6 9 29.77 1008 1 2 0.54 13.72
8:25 pm 20:25 Cloudy with Light Rain 72 22.2 70 21.1 94 94 NNE 6 9 29.77 1008 2 3 0.54 13.72
8:32 pm 20:32 Cloudy 72 22.2 70 21.1 94 94 Calm 29.77 1008 10 16 0.54 13.72
8:39 pm 20:39 Cloudy with Heavy Rain 72 22.2 70 21.1 94 94 ENE 7 11 29.77 1008 2 3 0.60 15.24
8:44 pm 20:44 Cloudy with Heavy Rain 72 22.2 70 21.1 94 94 VRB 5 7 29.78 1008 1 2 0.65 16.51
8:51 pm 20:51 Cloudy with Light Rain 72 22 70 21 94 94 Calm 29.77 1008 2 3 0.67 17.02
8:52 pm 20:52 Cloudy with Light Rain 72 22.2 70 21.1 94 94 Calm 29.77 1008 2 3 0.67 17.02
8:59 pm 20:59 Cloudy with Rain 72 22.2 70 21.1 94 94 Calm 29.77 1008 4 6 0.02 0.51
9:37 pm 21:37 Cloudy 73 22.8 71 21.7 94 94 Calm 29.77 1008 10 16 0.04 1.02
9:53 pm 21:53 Cloudy with Rain 73 22.8 71 21.7 94 94 Calm 29.76 1008 5 8 0.06 1.52
10:04 pm 22:04 Cloudy with Nearby Thunderstorms 73 22.8 71 21.7 94 94 Calm 29.77 1008 9 14 0.00 0.00
10:14 pm 22:14 Cloudy with Nearby Thunderstorms 73 22.8 71 21.7 94 94 Calm 29.77 1008 10 16 0.00 0.00
10:25 pm 22:25 Cloudy 73 22.8 71 21.7 94 94 NNW 3 6 29.77 1008 10 16 0.00 0.00
10:53 pm 22:53 Cloudy with Light Rain 72 22.2 70 21.1 94 94 NW 5 7 29.79 1009 6 10 0.03 0.76
11:53 pm 23:53 Cloudy 72 22.2 70 21.1 94 94 Calm 29.78 1008 10 16 0.06 1.52

Powered by AerisWeather